Regional Weather Roundup
Issued by NWS Boston, MA

Home | Current Version | Previous Version | Text Only | Print | Product List | Glossary On
Versions: 1 2 3 4 5 6 7 8 9 10 11 12 13 14 15 16 17 18 19 20 21 22 23 24 25 26 27 28 29 30 31 32 33 34 35 36 37 38 39 40 41 42 43 44 45 46 47 48 49 50
062
ASUS41 KBOX 271510
RWRBOX

REGIONAL WEATHER ROUNDUP
NATIONAL WEATHER SERVICE TAUNTON MA
1100 AM EDT THU JUL 27 2017

NOTE:  "FAIR" INDICATES FEW OR NO CLOUDS BELOW 12,000 FEET WITH NO
SIGNIFICANT WEATHER AND/OR OBSTRUCTIONS TO VISIBILITY.

MAZALL-271600-
EASTERN MASSACHUSETTS

CITY           SKY/WX    TMP DP  RH WIND       PRES   REMARKS
BOSTON         PTSUNNY   71  57  61 SW18      29.98F
BEVERLY        PTSUNNY   73  60  63 W14       29.97F
LAWRENCE       CLOUDY    73  58  59 SW13      29.99F
BEDFORD        CLOUDY    70  57  63 SW12      29.97F
BLUE HILL        N/A     70  58  65 SW15G22   30.00F
NORWOOD        CLOUDY    71  60  68 SW13      29.99F
MARSHFIELD     CLOUDY    70  61  73 SW7G13    30.00F
PLYMOUTH       CLOUDY    70  57  63 SW12      30.01F
TAUNTON        MOSUNNY   71  59  65 S9        30.01F
NEW BEDFORD    CLOUDY    73  59  61 SW12      30.00F
$$

MAZALL-271600-
CAPE COD AND THE ISLANDS

CITY           SKY/WX    TMP DP  RH WIND       PRES   REMARKS
FALMOUTH       MOSUNNY   72  59  64 SW14      30.03F
HYANNIS        PTSUNNY   70  62  76 S12       30.01F
CHATHAM        CLOUDY    69  61  75 VRB7G16   30.04F
PROVINCETOWN   PTSUNNY   66  60  81 S9        30.02F
NANTUCKET      CLOUDY    66  61  84 S10       30.04F
MARTHAS VNYRD  MOSUNNY   70  61  73 S13       30.03F
$$

MAZALL-271600-
CENTRAL AND WESTERN MASSACHUSETTS

CITY           SKY/WX    TMP DP  RH WIND       PRES   REMARKS
WORCESTER      CLOUDY    67  56  67 SW16      30.01F
FITCHBURG      CLOUDY    73  60  63 MISG      29.99S
ORANGE         CLOUDY    68  60  75 S7        29.99F
SPRINGFIELD    LGT RAIN  68  61  77 S5        29.99S
WESTFIELD      LGT RAIN  69  64  84 S7        29.99F
NORTH ADAMS    LGT RAIN  65  60  84 CALM      29.99F
PITTSFIELD     LGT RAIN  64  60  87 SW6       30.00F
$$

RIZALL-271600-
RHODE ISLAND

CITY           SKY/WX    TMP DP  RH WIND       PRES   REMARKS
PROVIDENCE     PTSUNNY   73  60  63 SW8       30.02F
NEWPORT        CLOUDY    69  62  78 VRB7      30.02F
BLOCK ISLAND   CLOUDY    71  61  70 SW13      30.04F
WESTERLY       CLOUDY    72  62  71 SW9       30.04F
$$

CTZALL-271600-
CONNECTICUT

CITY           SKY/WX    TMP DP  RH WIND       PRES   REMARKS
BRADLEY INTL   LGT RAIN  69  61  75 S8        30.00F
HARTFORD       PTSUNNY  N/A N/A N/A MISG      30.00F
BRIDGEPORT     MOSUNNY   73  62  68 SW12      30.02F
DANBURY        CLOUDY    70  63  78 W6        30.03F
GROTON         CLOUDY    72  63  73 SW12      30.02F
NEW HAVEN      CLOUDY    71  63  75 VRB7      30.02F
CHESTER        PTSUNNY   72  57  60 S6        30.02F
MERIDEN        CLOUDY    71  62  73 S7        30.00F
WILLIMANTIC    CLOUDY    72  61  68 SW6       30.02F
OXFORD         CLOUDY    68  59  73 VRB5      30.03F
$$

MEZ002-015-021-024-NHZ003-005-008-011-012-014-VTZ005-008-271600-
NORTHERN NEW ENGLAND

CITY           SKY/WX    TMP DP  RH WIND       PRES   REMARKS
PORTLAND ME    LGT RAIN  65  58  78 SW8       29.94F
BANGOR ME      CLOUDY    64  61  90 S10       29.94S
CONCORD NH     CLOUDY    67  58  72 S7        29.96S
MANCHESTER NH  CLOUDY    68  56  65 S8        29.95F
NASHUA NH      CLOUDY    69  60  73 CALM      29.97F
PORTSMOUTH NH  CLOUDY    70  57  63 SW8       29.94F
JAFFREY NH     CLOUDY    66  59  78 S9        30.00F
KEENE NH       CLOUDY    65  59  81 S3        29.99S
BURLINGTON VT  CLOUDY    73  63  70 S17G28    29.89S
MT. WASHINGTON LGT RAIN  48  48 100 W39         N/A  VSB 0
$$

NYZ052-076-271600-
EASTERN NEW YORK

CITY           SKY/WX    TMP DP  RH WIND       PRES   REMARKS
ALBANY         LGT RAIN  65  63  93 S8        29.98F FOG
NEW YORK CITY  CLOUDY    76  65  68 SW10      30.00F
$$

ANZALL-271600-
MARINE OBSERVATIONS

STATION/POSITION TIME  TEMP    WIND        PRES    VSBY  WAVE
                       AIR SEA DIR/SP/G                  HT/PER
                 (UTC) (F)     (DEG/KT/KT) (MB)    (MI)  (FT/S)
BOSTON BUOY      1450   65 63  170/  8/  8 1015.5F         2/ 8
BUZZARDS BAY     1400   66     210/ 10/ 11 1017.6F
NANTUCKET SOUND  1450      67              1016.9F         1
MASS BAY-STELLWA 1404   63 63  180/ 10/ 12 1015.3F         2/ 8
ISLE OF SHOALS   1400   65     210/ 17/ 19 1014.6F
S OF BLOCK IS    NOT AVBL
$$

......................KEY.........................
  SKY/WX - SKY CONDITION/PRESENT WEATHER
  TMP    - TEMPERATURE IN FAHRENHEIT
  DWPT   - DEWPOINT IN FAHRENHEIT
  RH     - RELATIVE HUMIDITY IN PERCENT
  WIND   - DIRECTION AND SPEED IN MPH
  PRES   - MEAN SEA LEVEL PRESSURE IN INCHES OF HG
  WCI    - WIND CHILL INDEX
  VSB    - VISIBILITY IN MILES
  HX     - HEAT INDEX
  TC     - TEMPERATURE IN CELSIUS
  VRB    - VARIABLE WIND DIRECTION
  N/A    - NOT AVAILABLE




USA.gov is the U.S. government's official web portal to all federal, state and local government web resources and services.